Wind_Speed
8 8 7 5 5 8 14 12 11 8 8 6 7 4 2 4 3 2 12 16 18 18 21 21 19 18 19 19 18 17 17 16 15 14 14 11 9 8 8 7 5 3 2 3 19 5 7 5 5
6 6 6 5 9 11 11 16 8 7 6 3 4 2 3 3 4 3 12 17 18 17 19 20 19 18 18 17 17 16 15 15 14 13 12 9 8 6 6 5 3 2 3 6 12 11 7 10 8
5 3 6 8 15 13 12 15 13 10 5 4 3 3 5 5 6 4 11 15 18 18 18 18 17 16 15 15 14 14 13 12 11 11 9 7 5 3 3 2 2 1 3 5 7 7 7 7 11
8 12 15 18 13 14 13 10 8 4 7 5 2 1 3 4 8 13 13 14 17 18 18 18 17 16 14 13 11 11 11 9 10 10 9 6 4 1 2 1 1 2 3 3 5 7 7 6 6
17 16 18 19 23 20 13 16 11 6 6 5 3 1 5 14 18 13 13 15 17 18 16 17 17 15 13 12 10 10 9 8 7 8 7 6 5 5 4 4 3 3 3 4 4 5 4 5 5
16 17 22 22 19 15 16 13 12 9 7 7 6 4 9 14 15 13 13 13 17 15 15 15 15 13 12 10 9 8 8 7 7 7 8 9 10 11 10 7 6 5 4 3 3 8 3 5 3
13 15 23 20 14 13 14 11 11 12 8 5 8 9 4 7 14 15 14 14 16 16 12 13 12 12 10 8 8 7 7 8 8 11 14 14 17 16 14 11 9 8 7 4 4 4 4 2 2
14 20 19 15 14 14 10 10 11 12 9 5 4 5 5 4 12 16 16 16 15 16 13 11 10 9 9 8 7 7 7 8 10 13 11 12 22 14 14 13 10 6 9 8 6 4 3 4 4
14 18 15 11 13 13 12 7 7 9 8 6 3 3 3 2 8 16 17 17 17 17 15 13 11 9 8 8 7 7 7 7 9 8 10 13 5 13 11 10 10 9 11 10 8 7 6 3 5
15 13 15 14 10 10 12 10 7 6 10 11 6 1 1 2 5 11 15 16 17 16 15 14 12 10 9 8 8 7 6 4 7 9 10 11 7 2 8 7 8 9 12 12 9 8 7 3 1
11 10 10 9 11 8 5 8 7 6 8 12 7 2 2 4 6 10 13 16 14 15 15 13 13 12 11 9 8 6 6 5 6 7 7 8 5 1 2 3 5 6 9 10 9 8 7 3 1
11 7 6 7 7 7 5 6 8 7 8 11 6 4 5 2 6 10 12 18 16 15 13 14 14 14 13 12 10 8 7 5 6 5 6 6 5 4 4 2 4 5 7 7 7 6 5 3 4
9 8 6 9 6 3 1 3 5 8 7 11 5 5 4 5 8 11 12 16 18 13 15 14 18 17 15 13 10 9 8 6 6 4 4 3 5 7 6 3 4 6 6 5 6 6 6 2 2
7 6 6 7 5 6 5 6 6 7 6 8 8 6 3 6 6 9 9 12 15 16 18 15 17 19 16 13 12 11 9 8 6 4 5 4 4 5 6 3 4 5 6 6 7 8 6 2 3
7 6 3 4 4 8 7 10 6 7 6 4 8 6 1 2 4 7 9 11 11 12 18 17 17 18 19 17 16 14 13 11 9 9 9 4 4 5 4 4 2 4 6 6 10 7 6 4 3
3 3 2 2 5 13 9 11 11 10 7 1 3 6 3 4 5 7 10 12 15 13 9 17 23 25 21 19 18 18 15 12 10 8 8 7 8 7 4 5 5 2 6 8 9 8 6 5 4
3 3 3 2 4 10 14 15 12 11 9 5 4 4 5 6 7 9 10 14 18 17 19 28 27 28 28 22 22 20 17 14 12 11 10 11 11 10 8 7 6 5 5 10 9 8 7 5 2
2 3 1 2 5 5 8 10 13 14 12 9 7 6 5 8 6 10 13 14 20 22 25 29 34 28 30 24 23 20 16 13 12 13 12 13 14 13 12 10 7 7 9 10 10 10 8 4 2
1 3 4 3 3 6 7 9 11 15 14 13 11 9 7 9 9 11 18 20 21 20 26 29 24 20 27 19 18 17 13 13 14 14 13 15 16 16 15 13 12 9 7 12 10 11 10 5 3
4 3 5 3 5 11 12 13 14 13 14 15 14 13 11 10 13 13 16 20 23 23 21 14 10 26 23 20 16 14 14 14 14 13 13 13 14 15 16 16 16 13 11 13 12 10 9 6 4
9 8 4 7 8 17 11 12 14 12 16 18 19 15 13 10 14 13 11 12 15 17 13 12 18 30 25 21 19 16 14 13 12 13 11 10 15 9 16 14 13 14 13 14 13 11 9 7 2
11 2 10 11 8 6 12 8 14 16 20 21 23 19 15 12 14 10 8 8 11 12 8 16 26 25 23 20 20 16 15 13 12 10 8 7 8 5 5 11 16 15 14 15 17 15 12 10 6
10 9 11 12 8 7 10 7 11 14 14 14 19 20 17 13 12 7 8 11 15 15 14 20 25 24 20 16 16 16 14 14 11 9 6 6 5 5 4 5 11 15 16 14 14 15 14 11 10
10 9 14 7 5 5 9 9 12 12 12 13 14 14 17 13 9 5 8 8 15 20 13 21 23 20 16 15 15 14 13 11 10 7 5 5 4 3 2 2 5 12 15 16 16 14 14 12 11
11 11 5 5 3 7 10 7 15 9 12 12 11 11 15 13 9 5 8 7 9 19 16 16 17 19 18 16 15 13 12 10 7 4 2 2 4 4 2 2 3 6 11 14 15 13 14 13 12
12 8 6 5 5 4 7 6 12 13 17 19 11 8 13 14 9 4 11 11 12 15 15 16 16 17 16 16 14 12 10 9 6 4 4 4 2 2 3 1 2 3 7 11 12 12 12 12 14
14 8 7 4 6 4 6 16 20 20 19 21 15 13 13 14 10 5 9 13 14 14 14 15 15 15 15 15 13 11 9 7 4 7 10 3 6 3 3 2 1 3 5 7 10 11 12 12 14
14 8 4 5 4 10 8 12 19 16 16 12 14 14 13 17 13 8 10 12 14 15 15 15 15 15 15 13 11 9 7 5 3 5 4 1 8 9 8 7 5 3 4 7 9 11 12 13 14
16 11 9 5 4 6 8 12 18 17 19 22 17 11 12 20 14 10 12 13 14 15 16 15 14 13 12 11 8 6 6 5 7 7 9 13 13 12 10 9 9 7 7 6 7 9 11 12 13
14 12 11 7 6 8 7 21 16 20 21 23 17 10 11 20 14 12 15 14 14 14 14 15 13 13 11 9 8 8 6 5 5 3 1 2 3 5 6 8 9 10 11 10 11 10 10 11 13
Wind_Direction
111 114 114 120 114 110 89 115 109 127 138 136 166 104 332 23 54 61 158 145 143 151 150 152 155 155 150 151 150 148 145 140 136 132 129 127 121 122 112 99 90 94 96 57 340 305 235 206 168
103 113 107 113 124 105 86 116 117 104 90 130 149 204 273 266 219 36 166 144 143 152 150 150 152 154 152 152 149 146 143 140 136 132 132 133 129 126 114 109 105 80 39 18 46 74 137 203 201
97 138 106 103 114 106 116 115 123 96 78 186 160 247 255 257 205 154 162 150 145 152 150 151 153 155 156 154 148 144 140 138 135 133 132 132 120 114 94 100 91 44 39 28 38 46 69 103 200
70 106 98 112 118 107 103 135 132 94 45 67 112 312 253 209 151 145 161 152 149 152 155 156 157 159 162 156 149 143 143 147 145 145 147 142 130 115 77 331 326 332 3 20 22 37 53 76 137
89 89 107 117 106 105 111 115 114 109 84 83 100 172 129 132 128 141 159 158 153 153 159 160 161 164 164 157 152 157 156 157 161 162 168 177 190 193 231 260 280 292 317 345 12 35 43 61 68
83 91 109 107 111 103 105 112 88 88 69 66 69 74 145 144 136 149 161 162 154 161 164 163 164 166 165 162 162 172 168 169 186 187 202 206 209 209 208 234 251 263 278 306 325 348 14 57 40
91 105 108 109 109 100 103 105 89 82 79 63 78 55 100 166 158 158 164 169 162 161 171 170 169 167 167 172 179 185 188 196 211 216 224 230 230 223 223 226 231 251 259 264 300 335 353 304 354
106 92 110 108 99 91 97 90 80 72 69 68 87 58 65 200 189 170 173 174 170 166 170 173 174 173 170 179 192 208 215 219 239 264 301 288 234 235 240 239 234 235 251 261 276 290 299 316 318
106 94 103 105 108 87 98 100 73 66 62 43 77 78 53 76 211 187 185 180 179 173 172 174 178 175 176 190 196 218 225 239 259 315 346 346 28 196 230 242 235 254 254 250 261 267 268 320 321
121 109 98 95 104 95 76 76 79 48 42 45 65 113 44 64 159 195 191 192 188 180 176 176 177 175 180 187 197 211 233 242 284 320 334 350 15 187 230 237 257 255 245 240 253 259 257 273 358
134 120 119 111 108 97 83 54 56 58 34 35 49 115 159 344 177 168 179 192 192 186 183 185 181 180 181 182 197 206 228 246 286 313 323 342 4 355 198 261 268 254 235 238 248 251 263 245 251
148 145 142 134 117 80 65 30 37 29 28 28 45 66 160 337 179 179 174 182 187 189 193 195 193 187 186 187 200 207 235 239 266 307 320 337 342 349 314 269 270 228 229 236 244 240 209 231 247
154 159 163 162 171 169 267 335 342 26 15 22 54 54 117 147 164 172 179 180 183 190 222 211 206 192 192 193 204 221 218 237 258 289 308 314 334 350 328 262 245 222 227 247 231 211 192 207 253
197 188 194 177 197 225 270 287 309 360 1 26 51 31 110 138 186 204 207 215 211 208 208 212 206 200 195 198 207 225 236 240 240 251 263 279 301 337 352 286 243 234 233 242 228 203 204 216 262
196 202 225 210 240 242 287 278 306 307 334 45 57 44 131 165 196 198 225 219 206 230 214 209 206 199 196 205 208 218 233 241 239 243 266 239 278 276 310 327 304 249 230 220 207 205 210 239 231
218 223 214 253 219 223 256 293 292 295 300 330 28 32 11 270 255 259 229 246 222 206 226 225 218 199 195 204 212 220 225 241 251 253 267 281 274 265 264 280 281 310 221 213 205 202 211 227 238
206 216 269 293 291 256 266 274 279 287 276 284 316 331 355 342 278 275 245 250 255 248 241 254 227 216 200 222 207 220 223 227 240 249 257 264 260 271 266 255 268 267 204 204 207 207 208 215 195
96 54 59 334 265 274 274 287 280 289 290 275 296 293 319 334 311 268 265 258 256 247 251 260 254 206 218 212 210 215 222 225 237 248 257 268 273 270 268 245 245 254 220 202 209 205 202 192 186
120 31 23 64 23 331 318 299 292 294 281 277 299 301 306 322 311 275 262 258 256 260 267 264 285 213 197 196 209 216 220 226 241 250 259 266 266 267 256 253 237 255 251 209 216 213 216 224 199
276 319 359 228 305 320 281 282 296 302 286 278 289 295 293 307 321 286 267 256 258 254 265 260 238 169 184 195 204 206 214 229 241 251 253 266 281 264 246 247 234 247 235 212 214 221 229 225 223
266 300 341 346 271 294 282 276 287 288 302 285 283 287 283 294 315 290 268 241 230 230 244 236 189 173 186 201 210 212 217 227 234 244 259 287 308 274 250 240 238 240 215 212 209 218 213 209 229
276 243 292 333 321 273 260 286 304 286 295 298 285 279 271 282 314 280 249 217 194 194 194 189 177 185 194 210 211 211 221 222 230 248 273 296 293 296 251 242 239 217 218 217 214 215 211 213 210
257 279 302 311 311 307 259 249 295 296 298 307 298 279 264 271 311 276 231 203 183 176 178 169 174 187 201 202 205 213 212 220 232 263 275 302 304 290 272 260 228 217 223 227 217 210 213 218 227
242 255 294 290 283 263 255 240 282 292 305 309 311 285 261 264 291 283 223 204 193 188 185 194 195 197 206 210 209 211 219 224 241 257 287 281 303 290 274 232 230 231 230 228 217 214 220 218 225
218 251 263 228 223 276 266 243 252 295 312 304 301 290 258 257 274 262 193 196 183 189 194 192 192 203 208 206 206 207 212 218 234 242 274 328 354 356 323 276 247 228 223 218 215 220 224 221 228
213 230 242 258 245 316 238 244 270 291 306 298 301 292 249 239 255 272 191 182 182 181 182 186 192 197 201 200 196 194 195 195 193 223 293 263 260 9 7 304 213 207 205 217 224 227 232 226 230
228 222 251 227 257 267 264 287 287 288 283 301 286 299 262 225 238 249 195 177 187 186 183 186 192 193 189 186 187 181 182 188 207 315 325 16 354 334 325 347 357 233 224 223 227 231 233 230 234
218 238 250 227 242 270 270 278 283 302 297 300 310 303 266 215 216 216 186 171 170 174 173 174 169 163 166 171 173 176 185 195 238 284 195 44 296 303 296 295 289 277 245 238 238 240 240 239 242
213 225 227 236 229 279 288 283 294 306 309 307 310 289 256 212 207 196 177 168 165 162 164 166 169 168 168 174 182 188 214 221 212 194 229 274 270 271 282 273 278 266 260 259 253 254 255 253 253
200 236 240 238 244 236 264 275 294 307 313 317 320 279 238 208 204 198 182 182 175 175 175 173 179 188 185 182 173 163 151 145 152 163 248 317 317 304 286 281 275 264 265 258 258 260 261 262 262
Height
3167 3167 3168 3168 3173 3172 3172 3175 3175 3177 3178 3178 3178 3179 3181 3180 3181 3185 3183 3184 3186 3189 3190 3193 3196 3199 3201 3203 3205 3207 3210 3210 3211 3212 3214 3214 3215 3216 3217 3217 3218 3218 3217 3218 3216 3214 3216 3217 3217
3167 3168 3169 3169 3171 3172 3176 3177 3178 3179 3179 3179 3180 3180 3180 3180 3180 3181 3183 3184 3187 3190 3192 3194 3197 3200 3202 3204 3205 3208 3210 3211 3213 3214 3215 3216 3217 3218 3218 3218 3218 3218 3218 3219 3218 3218 3216 3217 3218
3168 3168 3170 3169 3171 3173 3176 3178 3179 3179 3179 3179 3180 3180 3180 3179 3180 3182 3184 3184 3186 3191 3194 3195 3198 3200 3202 3204 3207 3209 3211 3212 3214 3215 3216 3217 3218 3218 3219 3219 3219 3218 3218 3219 3219 3219 3217 3217 3217
3167 3168 3170 3171 3172 3175 3177 3178 3178 3179 3178 3178 3178 3179 3178 3177 3179 3181 3184 3186 3188 3192 3194 3197 3199 3201 3203 3205 3207 3210 3211 3212 3214 3215 3216 3216 3217 3218 3219 3220 3220 3218 3218 3219 3219 3218 3218 3217 3216
3169 3169 3170 3171 3175 3176 3177 3178 3179 3180 3180 3179 3179 3178 3178 3177 3179 3182 3185 3187 3189 3192 3195 3197 3200 3202 3204 3206 3208 3210 3211 3213 3214 3215 3216 3217 3217 3217 3217 3218 3220 3219 3218 3218 3218 3218 3218 3218 3217
3171 3172 3172 3173 3175 3177 3178 3179 3180 3180 3180 3179 3179 3178 3180 3179 3180 3183 3186 3188 3190 3193 3195 3198 3200 3202 3205 3207 3209 3210 3212 3213 3214 3214 3215 3215 3215 3215 3215 3217 3218 3219 3218 3218 3218 3217 3218 3218 3218
3174 3174 3174 3176 3178 3179 3180 3181 3181 3181 3180 3180 3180 3180 3182 3182 3182 3183 3186 3188 3190 3193 3197 3198 3200 3203 3205 3208 3209 3211 3211 3212 3212 3213 3212 3213 3211 3214 3214 3215 3216 3217 3218 3218 3218 3218 3217 3218 3218
3175 3176 3176 3178 3179 3181 3181 3182 3182 3181 3180 3180 3180 3181 3182 3182 3182 3183 3185 3188 3191 3193 3196 3199 3201 3203 3205 3207 3209 3210 3211 3211 3211 3211 3210 3208 3208 3208 3214 3214 3214 3214 3216 3217 3217 3217 3217 3218 3218
3177 3178 3178 3180 3180 3182 3182 3182 3182 3182 3181 3181 3181 3182 3182 3182 3183 3183 3185 3188 3190 3192 3195 3198 3200 3203 3206 3207 3209 3210 3211 3211 3211 3210 3210 3209 3207 3209 3210 3212 3213 3214 3214 3215 3216 3216 3216 3216 3216
3178 3179 3180 3181 3182 3182 3182 3182 3182 3183 3182 3182 3181 3181 3182 3182 3182 3184 3185 3188 3190 3192 3195 3197 3200 3203 3205 3207 3209 3210 3210 3210 3211 3211 3210 3209 3208 3208 3210 3210 3211 3212 3212 3213 3214 3215 3214 3216 3216
3179 3181 3181 3182 3183 3182 3183 3183 3183 3183 3183 3182 3182 3182 3182 3182 3183 3184 3185 3188 3191 3192 3194 3196 3199 3202 3204 3207 3208 3209 3210 3210 3211 3211 3211 3210 3210 3210 3209 3209 3210 3211 3211 3212 3212 3213 3213 3214 3215
3181 3181 3182 3183 3183 3183 3184 3184 3184 3184 3184 3183 3183 3182 3182 3182 3183 3184 3185 3186 3189 3192 3194 3196 3198 3200 3203 3204 3207 3207 3208 3210 3210 3211 3210 3211 3210 3210 3210 3209 3209 3210 3211 3211 3211 3212 3212 3213 3213
3182 3182 3183 3182 3183 3183 3184 3184 3184 3184 3184 3184 3183 3183 3182 3182 3183 3184 3185 3187 3188 3190 3193 3195 3196 3197 3200 3203 3205 3206 3207 3208 3209 3210 3210 3210 3210 3210 3209 3209 3209 3209 3210 3210 3210 3210 3211 3212 3212
3182 3182 3183 3183 3183 3183 3184 3184 3183 3183 3184 3184 3183 3183 3182 3182 3183 3184 3185 3186 3187 3188 3190 3192 3194 3196 3198 3201 3203 3205 3206 3206 3208 3208 3209 3208 3209 3209 3209 3209 3209 3209 3209 3209 3209 3209 3210 3210 3210
3182 3183 3183 3183 3183 3183 3184 3183 3182 3183 3184 3184 3183 3182 3182 3182 3182 3183 3183 3185 3185 3186 3187 3190 3192 3193 3195 3199 3200 3202 3203 3203 3205 3205 3205 3205 3207 3207 3209 3208 3208 3208 3208 3208 3208 3208 3208 3210 3210
3182 3182 3182 3182 3181 3182 3184 3182 3182 3182 3183 3183 3182 3181 3181 3180 3180 3180 3180 3180 3182 3181 3184 3186 3187 3188 3190 3194 3197 3199 3200 3201 3203 3203 3203 3204 3205 3205 3207 3207 3208 3207 3207 3207 3208 3209 3209 3209 3208
3182 3181 3181 3182 3181 3182 3182 3181 3181 3182 3182 3182 3180 3179 3179 3179 3177 3177 3177 3177 3176 3177 3179 3179 3176 3179 3187 3193 3193 3196 3197 3198 3200 3202 3202 3202 3202 3203 3204 3205 3206 3206 3206 3206 3207 3208 3209 3209 3208
3181 3181 3182 3181 3181 3179 3180 3179 3180 3180 3181 3179 3178 3177 3176 3175 3174 3173 3172 3173 3172 3172 3173 3172 3163 3172 3181 3188 3191 3193 3195 3196 3198 3199 3199 3199 3200 3201 3202 3202 3204 3205 3205 3205 3207 3207 3208 3208 3208
3181 3181 3181 3181 3180 3179 3179 3178 3178 3178 3177 3176 3175 3174 3174 3172 3171 3169 3168 3168 3167 3168 3168 3166 3153 3172 3180 3186 3189 3191 3193 3195 3196 3197 3196 3196 3197 3197 3199 3201 3201 3203 3203 3204 3206 3207 3208 3208 3208
3180 3181 3181 3180 3179 3179 3177 3177 3176 3174 3173 3172 3171 3170 3170 3169 3168 3165 3164 3163 3164 3164 3166 3168 3168 3172 3178 3183 3186 3189 3191 3192 3194 3194 3194 3194 3194 3194 3195 3196 3198 3200 3201 3202 3204 3206 3206 3207 3208
3179 3180 3180 3181 3179 3176 3176 3175 3173 3172 3171 3169 3168 3167 3167 3167 3165 3162 3161 3159 3159 3161 3163 3164 3166 3170 3175 3179 3183 3187 3189 3191 3191 3192 3193 3193 3191 3190 3191 3193 3195 3197 3198 3200 3202 3204 3205 3206 3207
3178 3179 3178 3178 3177 3176 3174 3173 3171 3170 3168 3166 3165 3164 3164 3164 3163 3160 3159 3158 3158 3160 3161 3163 3166 3171 3175 3178 3182 3185 3187 3190 3190 3191 3191 3191 3190 3189 3189 3190 3193 3195 3197 3198 3199 3201 3203 3205 3206
3177 3177 3177 3175 3174 3173 3172 3174 3169 3168 3166 3165 3162 3161 3161 3162 3161 3159 3157 3157 3158 3160 3163 3165 3169 3172 3175 3178 3181 3183 3186 3188 3189 3190 3190 3190 3189 3189 3188 3188 3190 3193 3195 3196 3198 3200 3202 3204 3205
3174 3175 3174 3172 3172 3172 3170 3171 3167 3166 3165 3163 3160 3158 3158 3159 3159 3157 3155 3156 3157 3161 3164 3167 3169 3172 3174 3178 3180 3182 3184 3186 3188 3188 3188 3188 3188 3187 3188 3188 3189 3191 3193 3195 3195 3197 3199 3201 3203
3172 3173 3172 3171 3170 3168 3167 3167 3164 3163 3162 3160 3159 3157 3156 3157 3157 3156 3156 3156 3157 3161 3164 3166 3168 3171 3175 3177 3180 3181 3184 3186 3186 3187 3189 3189 3187 3186 3186 3187 3188 3189 3190 3192 3194 3196 3197 3198 3200
3169 3171 3169 3168 3166 3166 3166 3165 3162 3161 3159 3157 3157 3155 3154 3155 3155 3155 3155 3156 3158 3161 3164 3167 3169 3172 3174 3176 3179 3181 3182 3183 3185 3187 3188 3188 3186 3186 3185 3186 3187 3188 3189 3191 3193 3194 3195 3196 3197
3165 3165 3166 3165 3165 3166 3164 3161 3158 3157 3156 3154 3154 3152 3152 3152 3154 3154 3155 3155 3159 3161 3164 3167 3169 3172 3174 3177 3179 3181 3182 3184 3186 3186 3187 3180 3185 3186 3186 3186 3186 3187 3188 3189 3191 3191 3192 3193 3195
3160 3162 3163 3163 3162 3160 3160 3158 3154 3153 3153 3152 3150 3149 3149 3150 3152 3153 3154 3156 3158 3161 3164 3167 3170 3172 3175 3177 3178 3181 3182 3184 3184 3182 3185 3186 3185 3185 3185 3184 3185 3186 3186 3187 3188 3189 3190 3191 3192
3157 3158 3160 3160 3160 3158 3157 3155 3152 3152 3151 3149 3148 3146 3146 3148 3151 3153 3154 3157 3159 3161 3164 3168 3171 3173 3175 3177 3178 3180 3181 3183 3183 3183 3183 3184 3184 3184 3183 3182 3184 3185 3185 3186 3186 3187 3188 3189 3190
3152 3154 3156 3157 3158 3156 3155 3151 3149 3148 3147 3146 3145 3143 3143 3147 3150 3152 3154 3157 3159 3162 3165 3168 3171 3173 3175 3176 3178 3180 3181 3182 3183 3184 3184 3183 3182 3180 3180 3179 3181 3182 3183 3184 3184 3185 3187 3187 3187